Theta_e
314 315 316 316 317 317 317 317 318 320 321 320 320 320 320 318 315 314 315 315 316 314 311 311 313 314 313 313 315 315 310 310 310 310 313 313 312 313 313 313 313 315 315 317 323
314 315 316 316 317 317 317 317 318 320 321 320 320 320 320 318 316 316 316 315 315 316 311 313 313 314 315 315 316 312 310 311 309 309 311 312 312 313 312 312 312 313 315 317 323
314 315 316 316 317 317 316 316 318 320 321 321 320 320 320 318 318 317 316 315 316 316 312 311 315 315 316 314 314 312 312 310 313 313 313 313 312 313 311 311 312 312 317 322 324
314 316 316 316 317 317 316 316 318 320 321 321 321 320 319 318 319 317 315 313 313 314 312 311 315 315 314 313 314 313 312 312 313 314 312 311 312 312 312 313 313 313 314 317 319
315 316 316 316 317 316 316 316 317 319 320 321 321 320 319 318 318 316 311 310 311 312 311 313 314 314 313 313 314 312 312 313 313 313 311 312 312 311 312 313 313 313 313 314 315
315 315 315 316 317 316 315 315 316 317 319 321 321 319 318 318 317 313 309 309 309 310 312 314 314 314 312 313 314 313 312 312 312 312 313 312 312 312 314 314 313 313 313 313 313
315 315 315 316 316 316 315 315 315 316 317 320 320 319 318 317 315 310 308 308 308 309 311 313 314 315 313 312 313 313 313 312 311 312 312 312 311 310 313 313 314 314 313 312 312
314 314 315 316 316 316 315 314 314 315 317 319 320 319 318 317 312 311 308 308 309 310 310 313 315 315 315 313 314 314 314 317 313 312 312 312 313 312 315 313 312 312 312 312 312
313 314 315 316 316 316 315 314 314 317 319 320 319 319 318 316 312 314 312 309 311 313 313 314 316 315 316 315 315 314 316 317 316 311 311 312 311 311 313 312 312 312 312 313 313
311 312 314 316 316 315 314 314 315 319 321 320 319 319 317 315 317 317 314 310 312 314 315 315 316 312 311 317 317 319 317 315 315 312 311 311 310 310 313 312 312 312 312 312 311
310 311 313 315 315 315 314 314 318 318 320 318 318 318 319 317 317 315 314 313 313 314 315 316 314 315 313 314 314 315 314 314 313 310 311 310 309 310 311 311 311 311 313 311 311
309 310 311 313 314 314 314 316 319 318 317 317 318 318 318 318 317 313 313 314 314 314 315 314 314 314 313 311 312 313 314 313 312 310 311 310 311 311 308 308 309 310 311 311 311
308 308 309 311 313 314 314 316 318 319 315 315 317 317 316 314 313 312 313 314 314 316 314 315 315 310 312 312 313 313 313 313 314 310 309 307 309 310 309 307 308 310 310 311 311
312 311 310 311 311 314 315 315 319 318 305 308 316 314 311 309 309 313 313 314 314 314 314 315 312 311 312 313 312 315 311 311 312 310 312 307 313 309 308 306 306 308 310 310 310
316 315 313 312 314 314 315 317 320 316 302 306 313 310 310 310 312 312 313 314 314 314 314 315 311 311 312 313 312 313 309 310 309 307 307 309 308 310 307 309 307 305 309 308 309
314 314 315 314 314 315 316 320 319 306 304 310 311 310 309 309 312 313 313 314 314 314 313 314 311 310 311 308 310 307 308 308 306 305 308 309 309 311 309 310 309 307 308 309 309
314 313 313 315 314 315 317 320 311 306 308 313 313 311 311 311 309 313 314 313 313 314 314 314 313 310 309 310 308 309 310 312 311 309 316 307 308 310 309 307 307 308 308 309 309
312 312 312 315 315 318 319 317 311 309 311 314 313 312 313 312 312 313 313 313 312 313 311 312 312 310 309 312 311 308 311 314 314 313 314 306 310 311 308 307 308 309 309 309 309
311 311 311 314 315 316 319 317 310 310 312 316 314 315 314 313 314 313 312 312 311 312 314 314 315 309 309 309 310 309 310 310 312 308 307 310 308 308 305 305 305 306 307 308 308
308 310 310 311 313 315 317 315 312 310 313 314 315 313 314 314 313 312 312 311 313 312 313 313 314 309 308 308 306 309 307 310 309 314 315 311 309 314 310 308 306 305 306 307 309
305 307 309 311 312 315 316 315 314 314 314 315 315 315 313 314 312 312 314 313 311 314 312 312 313 310 308 308 309 307 308 308 309 310 313 319 317 307 310 309 307 305 307 308 309
305 308 309 311 313 314 316 314 314 314 313 312 314 314 314 315 316 312 314 314 314 313 314 312 311 312 310 308 306 306 308 309 317 316 308 307 316 307 309 308 306 308 309 309 309
304 305 305 309 313 315 315 315 315 313 313 313 313 313 313 315 317 315 314 315 314 313 312 312 314 314 316 309 307 308 306 308 309 311 317 318 319 304 305 306 307 307 308 308 309
304 303 304 304 301 303 306 308 309 305 305 305 306 309 314 314 314 315 314 312 312 310 312 315 316 317 320 315 310 310 308 309 311 315 317 317 317 315 308 307 306 307 307 308 308
302 302 302 303 301 300 301 302 305 305 301 302 304 304 305 310 310 313 307 308 307 306 308 309 317 317 317 317 317 316 313 313 312 312 316 317 317 316 312 307 307 308 307 306 307
301 302 300 301 300 301 301 303 303 304 302 303 304 302 302 305 305 305 304 306 307 304 306 305 310 309 310 312 313 316 317 318 317 313 313 314 314 313 308 308 306 307 306 307 308
301 301 301 301 302 302 302 303 303 301 302 301 302 303 304 303 300 301 301 301 302 304 305 304 307 308 310 309 310 310 310 313 316 317 318 317 314 313 312 311 310 310 308 308 309
Wind_Speed
4 4 5 6 8 9 10 11 12 13 12 11 11 9 8 5 1 1 3 4 3 3 1 3 4 4 3 3 2 2 5 4 8 7 4 4 3 3 3 4 4 4 4 3 11
3 5 6 6 7 9 10 11 12 13 12 12 11 9 8 4 3 3 6 4 3 2 1 3 3 3 2 2 2 4 4 9 6 7 5 5 4 4 2 3 4 6 7 7 13
4 5 6 7 8 8 9 10 11 12 12 12 11 10 7 5 3 2 7 5 4 4 3 4 3 1 1 2 2 3 3 3 2 4 5 4 2 3 3 5 10 8 10 14 15
5 6 7 8 9 10 10 11 11 12 13 13 12 11 7 4 1 4 7 6 4 3 3 4 3 0 1 2 2 3 3 3 4 2 2 2 2 3 11 6 5 6 5 12 15
6 6 8 9 9 11 12 12 12 12 13 13 12 10 6 3 2 7 7 5 3 2 4 3 2 1 2 2 2 2 3 3 4 3 2 3 6 6 13 12 11 8 10 11 14
6 7 7 8 9 10 12 12 13 13 13 12 13 10 4 2 4 5 5 4 2 2 4 4 2 0 1 1 2 2 3 2 1 0 2 2 3 5 4 10 16 11 12 14 15
8 7 7 8 9 10 11 12 13 13 12 11 11 8 7 4 4 5 4 3 2 0 3 3 3 2 0 2 3 4 2 3 2 1 2 1 5 7 9 3 15 18 15 14 13
9 9 9 9 9 9 11 12 12 12 11 10 9 7 4 4 3 5 4 2 2 1 3 4 3 4 3 4 4 3 4 2 1 2 1 2 8 3 6 11 13 15 14 14 15
11 11 11 10 10 10 10 11 11 10 7 7 6 4 3 3 2 5 5 2 1 1 2 4 3 4 4 3 4 6 1 2 4 2 2 2 7 4 4 13 16 17 14 14 14
12 12 11 12 13 12 10 9 9 9 7 6 5 2 4 3 5 10 5 3 3 1 2 2 2 3 3 4 3 2 2 2 4 3 2 4 12 13 22 15 24 21 18 17 16
11 11 11 11 12 12 11 9 5 5 5 6 5 6 9 10 9 6 5 3 4 2 3 2 3 5 7 6 4 4 2 2 3 1 2 5 9 18 20 19 26 28 21 20 20
12 10 9 9 10 10 8 5 6 6 10 10 13 16 14 12 5 5 6 5 4 5 4 4 5 5 4 5 6 5 4 5 5 1 1 5 17 14 11 10 17 25 32 27 23
11 10 9 7 7 6 4 5 6 9 5 6 6 5 4 6 4 5 7 5 3 4 5 6 2 6 3 4 4 2 4 3 4 5 1 6 9 5 4 5 8 12 18 27 28
10 11 9 6 4 3 2 5 6 8 5 6 3 3 4 5 2 6 7 5 2 9 7 4 2 6 3 4 5 4 2 3 3 4 3 4 5 6 6 9 6 11 19 28 28
11 9 9 8 3 1 2 3 4 3 4 4 1 1 1 2 4 3 6 4 4 5 6 6 8 5 3 4 6 3 4 4 3 4 4 1 2 9 3 8 10 15 23 25 24
16 15 11 11 7 5 4 1 1 6 6 2 1 1 1 1 1 2 3 2 1 1 3 2 1 4 6 3 3 10 5 5 4 3 1 6 7 5 5 7 5 7 25 28 27
16 16 14 12 7 7 5 3 4 4 2 5 5 5 3 3 2 3 3 4 5 4 4 1 3 0 3 5 6 3 5 2 4 1 6 4 3 9 7 8 4 6 20 28 25
17 16 13 16 12 9 6 2 4 4 6 3 2 3 7 9 5 6 4 3 6 3 3 5 5 9 6 5 8 6 7 6 8 4 4 4 8 8 9 9 17 24 15 25 29
17 16 15 16 16 15 10 8 7 7 4 4 2 2 3 3 3 4 7 6 8 12 9 6 6 2 4 4 5 5 4 2 2 2 2 5 7 7 9 10 10 8 16 25 33
9 13 19 15 14 19 7 12 7 7 2 3 9 8 7 5 6 7 8 5 5 14 1 3 3 0 1 2 2 5 4 3 1 3 8 5 6 6 4 11 5 8 19 25 32
5 5 7 18 17 18 11 7 6 11 8 6 4 3 5 5 7 5 5 3 6 2 9 5 5 2 3 7 10 3 3 3 2 4 5 13 8 7 9 9 9 11 22 26 32
4 2 6 13 13 6 12 6 10 8 26 7 2 5 7 6 4 6 9 6 8 8 9 8 4 5 12 2 4 5 9 9 8 7 4 3 18 5 5 3 11 20 26 27 29
4 3 5 15 5 9 3 8 8 4 8 8 9 9 6 6 4 8 7 5 5 5 4 4 4 2 2 3 2 6 7 7 1 2 23 6 17 3 2 3 12 18 23 27 28
4 1 1 1 3 2 3 3 2 5 4 4 5 5 5 12 15 7 5 2 9 6 6 4 6 10 15 5 5 5 9 15 19 13 19 25 27 21 4 6 9 14 17 24 26
5 1 2 2 1 2 2 1 2 3 5 10 3 5 3 3 3 7 4 7 5 10 4 2 11 13 21 20 15 18 14 17 21 25 19 31 21 27 7 9 16 19 14 16 16
5 2 2 3 4 3 1 1 2 2 2 1 2 1 1 2 1 1 3 0 2 5 3 2 3 2 4 5 6 12 23 26 25 23 23 26 31 16 6 4 3 8 12 12 10
6 6 2 3 3 2 2 4 1 1 2 4 4 0 2 2 2 9 9 10 7 2 1 2 1 2 4 1 5 13 9 14 17 22 18 18 20 16 13 12 20 22 16 14 20
Wind_Direction
352 2 17 14 7 4 360 357 353 355 358 358 353 352 356 350 3 300 313 316 298 326 266 186 157 157 121 90 67 109 71 171 194 160 234 169 166 194 193 200 192 199 196 198 179
323 334 343 356 357 355 354 351 350 352 355 356 354 350 353 336 255 313 343 316 280 287 242 193 189 168 108 105 56 73 114 208 180 169 179 168 183 195 222 224 207 206 216 189 179
300 316 327 337 344 346 347 347 346 345 344 347 345 343 344 338 301 265 329 311 298 276 241 197 183 149 78 76 35 120 173 165 191 164 152 166 232 213 202 250 232 217 198 181 184
292 309 320 329 333 337 339 340 340 337 337 333 335 333 329 332 355 321 328 319 317 282 219 191 191 236 96 143 119 104 119 125 141 154 151 204 244 253 219 224 200 202 219 205 207
282 301 313 321 326 330 332 333 333 331 330 325 326 328 325 313 285 324 329 331 307 252 194 192 201 226 177 153 108 93 170 124 152 185 239 252 257 251 254 233 220 209 210 217 220
283 296 305 312 318 323 326 327 327 325 323 321 322 323 317 306 304 325 331 342 312 225 193 185 180 138 123 85 78 88 103 92 181 259 261 267 294 332 299 216 210 205 221 222 229
272 280 292 302 311 317 318 320 320 320 315 314 314 315 303 283 308 334 340 355 351 182 185 185 158 69 109 96 94 104 57 347 224 189 322 352 283 238 248 203 198 211 219 228 234
272 279 288 295 303 310 313 314 314 313 308 305 298 300 278 287 306 339 342 343 15 84 128 129 123 100 42 112 35 57 51 18 312 100 25 75 275 270 213 202 203 215 223 235 241
277 284 292 300 306 310 313 314 311 304 295 294 282 275 259 273 269 342 335 294 281 76 104 125 129 100 100 73 14 14 253 246 321 39 323 159 277 266 259 221 232 228 235 245 250
275 284 294 305 314 318 321 318 302 286 265 274 245 264 224 208 288 310 298 250 210 198 116 146 103 83 57 84 223 274 292 284 269 346 346 275 265 275 271 264 248 241 256 244 240
271 278 290 302 312 323 328 338 306 269 247 232 237 256 265 268 281 269 241 219 200 173 169 52 76 209 206 174 163 148 168 265 267 53 299 251 276 277 277 262 255 247 247 228 227
273 279 285 298 313 327 351 32 22 327 304 263 245 255 258 267 258 228 214 189 175 186 128 32 233 210 141 157 145 153 167 243 269 204 204 325 292 274 278 254 256 253 241 224 215
265 269 278 289 304 309 353 24 344 336 281 281 248 238 215 220 230 219 193 182 167 157 178 163 247 136 139 157 148 207 187 202 234 329 43 333 294 305 255 248 277 264 244 220 214
276 283 276 270 275 286 312 353 336 349 51 276 264 242 186 165 244 198 192 185 193 191 163 220 161 163 181 211 133 216 148 99 68 52 254 23 275 284 283 293 251 242 219 213 210
268 279 281 274 252 237 270 324 324 12 18 289 306 169 204 206 132 177 184 203 194 192 127 232 166 166 173 205 168 210 78 83 69 86 29 278 105 276 332 281 252 226 215 210 212
265 266 255 259 252 241 227 251 315 49 248 339 91 339 25 199 293 121 151 169 117 133 341 241 302 174 192 110 143 150 87 59 65 82 354 225 174 277 221 221 271 227 220 210 209
255 265 249 234 235 222 208 140 45 160 289 200 183 162 192 200 231 185 166 182 165 115 238 350 215 214 137 78 13 62 88 322 329 3 228 144 135 242 265 245 249 271 230 215 213
249 253 249 232 211 192 188 126 191 232 247 336 152 143 184 161 211 178 146 249 219 106 115 166 301 167 180 199 184 188 172 170 234 212 249 135 224 241 242 250 245 242 249 222 211
232 235 242 218 208 197 186 216 200 197 214 193 73 173 258 265 165 142 198 209 208 173 185 171 267 163 166 150 143 191 191 219 345 48 1 223 292 293 267 275 268 245 223 215 208
225 226 232 224 202 200 219 224 203 207 249 155 200 174 201 211 168 182 188 203 234 197 182 223 278 256 126 124 84 164 156 95 45 275 263 248 260 232 242 245 240 244 224 215 207
200 211 227 209 187 195 223 219 203 224 222 203 219 272 224 192 198 202 213 243 211 193 187 154 169 228 124 203 178 148 201 221 177 164 213 283 258 213 218 225 221 239 234 222 208
189 227 197 185 194 205 223 187 211 212 236 243 231 213 196 209 237 228 216 234 192 156 164 214 172 207 209 234 180 185 196 175 219 229 228 170 262 186 202 242 228 234 236 224 215
205 243 243 200 224 214 171 219 222 221 203 225 235 215 188 205 245 205 197 238 193 165 164 201 231 286 265 40 28 212 198 218 246 97 244 226 260 143 283 249 247 236 237 227 222
179 226 243 151 27 17 32 15 101 42 58 3 347 322 239 237 232 245 216 78 9 30 345 326 249 240 248 211 132 190 220 219 222 241 254 240 269 250 245 240 252 240 238 228 227
181 203 174 123 67 80 59 33 70 28 21 21 53 41 2 304 341 257 21 328 46 8 39 57 264 265 268 278 272 261 248 236 224 233 236 260 248 266 244 237 242 245 217 200 206
156 171 135 106 125 125 123 97 43 112 56 349 258 143 316 353 352 43 20 280 326 1 31 354 256 334 275 335 358 274 266 256 248 246 250 255 265 284 317 42 38 224 202 182 196
189 163 156 150 150 153 180 149 144 33 206 238 156 55 241 339 306 295 263 252 253 289 293 268 263 330 246 60 322 282 248 237 253 251 260 253 260 291 281 271 256 254 229 232 244